AO-07 1 07530U 74089B 26127.92535750 -.00000045 00000-0 93828-5 0 9992 2 07530 101.9921 140.7498 0012082 206.3644 217.1570 12.53697409355474 UO-11 1 14781U 84021B 26128.21635255 .00000952 00000-0 10274-3 0 9997 2 14781 97.8034 94.2479 0006656 326.9018 33.1783 14.90689176251173 AO-27 1 22825U 93061C 26128.14308846 .00000080 00000-0 47497-4 0 9994 2 22825 98.6894 195.5670 0007788 211.1234 148.9489 14.30931314701271 FO-29 1 24278U 96046B 26128.16368998 -.00000047 00000-0 -11083-4 0 9997 2 24278 98.5284 342.5084 0349489 200.1450 158.5605 13.53272349467754 GO-32 1 25397U 98043D 26127.95552514 .00000051 00000-0 42131-4 0 9995 2 25397 99.0063 119.7021 0001263 23.0417 337.0817 14.24420434445601 ISS 1 25544U 98067A 26128.19937109 .00004920 00000-0 96926-4 0 9999 2 25544 51.6308 138.0417 0007476 35.9089 324.2400 15.49139257565554 NO-44 1 26931U 01043C 26128.06783465 .00000089 00000-0 64019-4 0 9998 2 26931 67.0519 348.0394 0006345 263.8409 96.1971 14.31940481284701 SO-50 1 27607U 02058C 26127.76209223 .00001084 00000-0 14510-3 0 9993 2 27607 64.5523 254.0492 0075634 269.8415 89.4024 14.82961176258462 CO-55 1 27844U 03031E 26128.27645259 .00000243 00000-0 12419-3 0 9990 2 27844 98.6749 137.3361 0008501 305.9983 54.0407 14.24310823185995 RS-22 1 27939U 03042A 26128.30247020 .00000678 00000-0 11287-3 0 9999 2 27939 98.3473 311.5365 0012136 40.3113 132.8807 14.73396836209678 CO-65 1 32785U 08021C 26128.20375378 .00003859 00000-0 24756-3 0 9992 2 32785 97.8270 108.8092 0009702 154.1058 206.0657 15.09078128979169 CO-66 1 32791U 08021J 26128.22808739 .00014511 00000-0 48067-3 0 9991 2 32791 97.7532 124.2651 0005124 93.8317 266.3509 15.31400193981175 RS-30 1 32953U 08025A 26128.26181846 .00000074 00000-0 45672-3 0 9990 2 32953 82.5071 20.2746 0020450 40.3250 319.9342 12.43178169814739 SRMSAT 1 37841U 11058D 26127.80052164 .00000405 00000-0 75810-4 0 9996 2 37841 19.9731 303.9251 0011766 119.4007 16.2660 14.11566674752108 ZACUBE-1 1 39417U 13066B 26128.14334387 .00004118 00000-0 32239-3 0 9998 2 39417 97.8127 90.2641 0042580 27.8491 332.4999 15.00878000674726 Delfi-N3xt 1 39428U 13066N 26128.28306517 .00005521 00000-0 48777-3 0 9992 2 39428 97.8343 48.6444 0074643 341.0381 18.8062 14.94628242668665 GOMX-1 1 39430U 13066Q 26128.28047419 .00001800 00000-0 27674-3 0 9997 2 39430 97.6509 331.2587 0128137 205.1028 154.3916 14.69306297664053 LO-74 1 39440U 13066AA 26128.26882941 .00003091 00000-0 28986-3 0 9994 2 39440 97.8886 77.0956 0058551 158.1875 202.1857 14.93469798671033 AO-73 1 39444U 13066AE 26127.87806580 .00006710 00000-0 42276-3 0 9998 2 39444 97.8252 98.5052 0036011 343.8124 16.1951 15.08962668673587 DTUSAT-2 1 40030U 14033W 26128.20602961 .00006372 00000-0 34984-3 0 9992 2 40030 98.0870 123.4144 0008356 24.0636 336.0983 15.14498112646636 LILACSAT-2 1 40908U 15049K 26128.26537649 .00014509 00000-0 25891-3 0 9998 2 40908 97.4702 163.6207 0008083 51.7852 308.4126 15.50140574589563 Horyu-4 1 41340U 16012D 26127.99543598 .00148771 00000-0 87164-3 0 9999 2 41340 30.9892 9.2186 0006130 342.4033 17.6411 15.76740137564433 Lapan A3 1 41603U 16040E 26128.24269714 .00003169 00000-0 10206-3 0 9990 2 41603 97.1493 125.7110 0011235 149.7603 210.4291 15.32854305548695 CAS-2T 1 41847U 16066G 26128.20571262 .00000635 00000-0 99355-4 0 9996 2 41847 98.3826 204.3939 0340939 250.8119 105.5888 14.44585280499026 TechnoSat 1 42829U 17042E 26128.01985558 .00002133 00000-0 15528-3 0 9992 2 42829 97.4247 287.2249 0016430 227.1268 132.8580 15.04714762480664 AO-91 1 43017U 17073E 26128.17872094 .00008331 00000-0 36621-3 0 9996 2 43017 97.4759 356.2263 0154082 106.5780 255.2437 15.11990616459344 S-Net D 1 43186U 18014G 26128.27733814 .00004190 00000-0 21959-3 0 9993 2 43186 97.5387 33.3232 0009193 146.6719 213.5095 15.16299875452712 S-Net B 1 43187U 18014H 26128.22201961 .00004042 00000-0 21214-3 0 9992 2 43187 97.5391 33.2536 0009933 143.0282 217.1637 15.16269094452703 S-Net A 1 43188U 18014J 26128.27641329 .00004186 00000-0 21935-3 0 9993 2 43188 97.5402 33.5091 0009804 143.5398 216.6504 15.16306810452712 S-Net C 1 43189U 18014K 26128.22567769 .00004018 00000-0 21087-3 0 9996 2 43189 97.5420 33.5271 0011311 138.2069 222.0029 15.16260180451255 Ten-Koh 1 43677U 18084G 26128.24120001 .00001241 00000-0 97753-4 0 9990 2 43677 98.0783 318.9280 0007677 248.1610 111.8798 15.02769233410169 PO-101 1 43678U 18084H 26128.28786422 .00001999 00000-0 16475-3 0 9991 2 43678 98.1088 322.7893 0012272 308.8830 51.1297 15.00254241410231 QO-100 1 43700U 18090A 26128.16781066 .00000152 00000-0 00000-0 0 9994 2 43700 0.0079 276.6894 0001666 161.0003 234.5410 1.00272653 27277 MinXSS-2 1 43758U 18099A 26128.14362173 .00029793 00000-0 64587-3 0 9993 2 43758 97.4545 203.3379 0007939 60.3833 299.8205 15.44338918407946 AO-95 1 43770U 18099N 26128.15027951 .00009048 00000-0 35571-3 0 9992 2 43770 97.4405 188.5667 0010327 125.4877 234.7326 15.25850289407115 SNUSat 2 1 43782U 18099AA 26128.08443962 .00007061 00000-0 31876-3 0 9998 2 43782 97.4088 182.0973 0011909 80.1435 280.1144 15.21227731406936 SnugLite 1 43784U 18099AC 26128.09721849 .00009918 00000-0 38469-3 0 9992 2 43784 97.3899 182.7934 0004326 83.1859 276.9872 15.26310185407202 ITASat 1 1 43786U 18099AE 26128.09573004 .00005966 00000-0 29138-3 0 9994 2 43786 97.4056 180.4173 0014109 129.0483 231.2009 15.18541149406823 EAGLET 1 1 43790U 18099AJ 26128.10083356 .00003377 00000-0 19660-3 0 9990 2 43790 97.4258 178.8340 0012651 121.2254 239.0218 15.12632426406279 ESEO 1 43792U 18099AL 26128.06678578 .00001613 00000-0 12036-3 0 9994 2 43792 97.3994 167.1693 0013336 108.5890 251.6786 15.04116634405777 JO-97 1 43803U 18099AX 26128.14758207 .00013347 00000-0 42861-3 0 9990 2 43803 97.4155 190.8790 0006775 64.9539 295.2405 15.32399367407495 Suomi 100 1 43804U 18099AY 26128.12621563 .00009566 00000-0 35751-3 0 9991 2 43804 97.4210 188.6921 0011361 68.0387 292.2059 15.27505663407306 ISAT 1 43879U 18111D 26128.24650637 .00064704 00000-0 82621-3 0 9998 2 43879 97.5898 60.6115 0008480 92.4014 267.8212 15.59020191404939 UWE-4 1 43880U 18111E 26127.73076591 .00023812 00000-0 52780-3 0 9992 2 43880 97.5857 54.3410 0010684 106.8348 253.4072 15.43699555404533 Sparrow 1 43881U 18111F 26128.27359449 .00090267 00000-0 90981-3 0 9992 2 43881 97.6119 65.6595 0007642 114.3591 245.8467 15.65067113405110 Prox-1 1 44339U 19036A 26128.07934448 .00011215 00000-0 11146-2 0 9995 2 44339 23.9966 21.9579 0006410 288.6461 71.3342 14.89678195367485 Taurus 1 1 44530U 19059C 26128.26982853 .00003884 00000-0 63185-3 0 9991 2 44530 98.6394 290.6422 0009606 81.5191 278.7103 14.71667097352778 TO-108 1 44881U 19093C 26128.26199713 .00000031 00000-0 95652-5 0 9990 2 44881 97.7536 201.4666 0012632 213.5113 146.5305 14.86452632345488 RS-44 1 44909U 19096E 26128.13259554 .00000012 00000-0 10517-4 0 9995 2 44909 82.5247 6.3247 0216530 237.9074 120.0844 12.79748134297224 SALSAT 1 46495U 20068K 26128.23746321 .00006235 00000-0 22249-3 0 9999 2 46495 97.8867 128.8907 0011669 84.9027 275.3543 15.29213995309257 CSS (TIANHE-1) 1 48274U 21035A 26128.23670278 .00021140 00000-0 22512-3 0 9993 2 48274 41.4663 205.0585 0004841 355.4513 4.6282 15.63470026286922 CUTE 1 49263U 21088D 26128.21374603 .00179174 00000-0 10776-2 0 9990 2 49263 97.4195 224.1729 0000820 287.4257 72.6919 15.77215124256229 TeikyoSat 4 1 49396U 21102B 26128.08027770 .00001679 00000-0 10874-3 0 9993 2 49396 97.3703 159.1209 0013685 73.9588 286.3148 15.09365859246670 Z-Sat 1 49399U 21102E 26128.25428067 .00002577 00000-0 12967-3 0 9992 2 49399 97.3355 164.7919 0017480 32.3525 327.8777 15.17961154247380 KOSEN 1 1 49402U 21102H 26128.09069078 .00005750 00000-0 22394-3 0 9993 2 49402 97.3221 171.0370 0013327 357.2558 2.8605 15.26289687247902 HO-113 1 50466U 21131B 26128.27684251 .00000322 00000-0 11308-3 0 9996 2 50466 98.4954 220.8870 0003533 202.0198 158.0839 14.41318904229366 SNUGLITE 2 1 52899U 22065F 26127.85160606 .00000891 00000-0 17819-3 0 9995 2 52899 98.2149 272.7679 0008301 143.3361 216.8411 14.64271661205098 UmKA 1 (RS40S) 1 57172U 23091G 26128.21498126 .00004483 00000-0 20885-3 0 9994 2 57172 97.5073 187.0745 0011314 256.7337 103.2637 15.20367332157939 CubeBel-2 (EU11S) 1 57175U 23091K 26128.25364063 .00009538 00000-0 34901-3 0 9993 2 57175 97.5070 191.1395 0008629 251.4777 108.5525 15.28235747158208 RS-38S 1 57189U 23091Z 26128.26113854 .00013431 00000-0 40027-3 0 9992 2 57189 97.5104 196.9836 0007210 201.2153 158.8792 15.34776627158567 SONATE-2 1 59112U 24043Q 26127.97564503 .00028274 00000-0 40824-3 0 9992 2 59112 97.5499 276.0110 0006202 352.7006 7.4156 15.55912947121637 GRBBeta 1 60237U 24128C 26128.06270063 .00003123 00000-0 22121-3 0 9998 2 60237 61.9913 357.0075 0045830 126.2803 234.2537 15.06314577100228 Curium One 1 60242U 24128H 26128.16449579 .00006697 00000-0 39263-3 0 9999 2 60242 61.9801 347.4577 0045566 122.7053 237.8449 15.11874175100406 ROBUSTA-3A 1 60243U 24128J 26128.04113763 .00006250 00000-0 37530-3 0 9990 2 60243 61.9878 350.1460 0046709 120.1080 240.4658 15.11054510100354 CatSat 1 60246U 24125J 26128.14802179 .00042560 00000-0 63887-3 0 9995 2 60246 97.2133 340.2572 0021984 333.0460 26.9651 15.54501564101165 HYPERVIEW-1G (RS66S) 1 61772U 24199AP 26128.25253746 .00085734 00000-0 79166-3 0 9990 2 61772 97.2949 6.2293 0008152 75.9678 284.2488 15.67271880128401 AO-123 1 61781U 24199AY 26128.21372864 .00006253 00000-0 18526-3 0 9991 2 61781 97.3051 357.2513 0015916 92.6459 267.6607 15.35092947127798 JINJUSat 1B 1 63210U 25052A 26128.25951251 .00013420 00000-0 43275-3 0 9999 2 63210 97.4039 24.9921 0002340 186.7379 173.3832 15.32281704 63989 NUSHSAT 1 1 63211U 25052B 26128.23270976 .00015727 00000-0 47334-3 0 9998 2 63211 97.4018 25.4034 0002023 184.2772 175.8454 15.34447100 64014 TEVEL2-4 1 63213U 25052D 26128.19194579 .00014792 00000-0 46266-3 0 9993 2 63213 97.3941 24.5531 0000980 189.2943 170.8281 15.33237203 63985 TEVEL2-5 1 63214U 25052E 26128.20822558 .00014256 00000-0 44817-3 0 9996 2 63214 97.3937 24.5279 0000984 187.1965 172.9264 15.33083490 63986 TEVEL2-6 1 63215U 25052F 26128.15431446 .00014491 00000-0 45605-3 0 9990 2 63215 97.3941 24.4589 0001022 198.3270 161.7936 15.33044765 63975 TEVEL2-1 1 63217U 25052H 26128.23543318 .00013825 00000-0 44187-3 0 9997 2 63217 97.3911 24.2099 0000560 240.3013 119.8173 15.32561393 63974 TEVEL2-3 1 63218U 25052J 26128.23139861 .00013826 00000-0 44125-3 0 9995 2 63218 97.3917 24.2231 0000574 242.5653 117.5531 15.32608416 63979 TEVEL2-2 1 63219U 25052K 26128.17063859 .00013799 00000-0 44100-3 0 9994 2 63219 97.3916 24.1468 0000555 246.7091 113.4093 15.32565190 63969 TEVEL2-9 1 63237U 25052AD 26128.22866334 .00012896 00000-0 43681-3 0 9999 2 63237 97.3984 23.6624 0004129 290.4131 69.6666 15.30699981 63911 TEVEL2-7 1 63238U 25052AE 26128.26233284 .00012869 00000-0 43947-3 0 9991 2 63238 97.3978 23.6283 0004241 289.5192 70.5591 15.30435192 63917 TEVEL2-8 1 63239U 25052AF 26128.20475509 .00012409 00000-0 42413-3 0 9991 2 63239 97.3980 23.5492 0004211 290.9111 69.1679 15.30415146 63903 HYDRA-W 1 63490U 25052BL 26113.93882235 .05662091 24406-5 29537-2 0 9997 2 63490 97.3690 18.2798 0008685 203.5899 156.4993 16.20186780 62336 HADES-ICM (SO-125) 1 63492U 25052BN 26128.25787469 .00605669 14202-3 21656-2 0 9991 2 63492 97.3786 31.9533 0007188 163.5808 196.5699 15.88785046 64484 SPIRONE 1 66657U 25274H 26128.25584851 .00001343 00000-0 13317-3 0 9996 2 66657 97.7469 58.1254 0012973 141.4692 218.7457 14.93381957 24266 K-HERO 1 66660U 25274L 26128.27172513 .00001665 00000-0 16205-3 0 9996 2 66660 97.7475 58.2723 0014871 146.2779 213.9390 14.93808823 24277 SNUGLITE-III DURI 1 66661U 25274M 26128.26079424 .00001119 00000-0 11048-3 0 9997 2 66661 97.7477 58.2807 0015383 147.3998 212.8175 14.93864305 24273 SilverSat 1 66909U 98067XV 26113.44966717 .07226154 12288-4 11979-2 0 9998 2 66909 51.6027 190.0749 0007952 333.4666 26.5949 16.32457272 22308 SAKHACUBE-CHOLBON 1 67290U 25313AU 26128.18701648 .00007454 00000-0 30873-3 0 9996 2 67290 97.3933 203.7432 0010699 132.6298 227.5843 15.24157746 19886 RS95S (QMR-KWT-2) 1 67291U 25313AV 26128.20761704 .00011174 00000-0 44638-3 0 9997 2 67291 97.3937 203.8662 0010541 131.9784 228.2353 15.25249044 19894 Ten-Koh2 1 68261U 25241B 26128.26798301 .00004828 00000-0 21398-3 0 9990 2 68261 51.6514 149.5536 0006106 18.0812 342.0382 15.23384713 8820 JACK-002 1 68417U 26067B 26128.11288786 .00005629 00000-0 27297-3 0 9999 2 68417 97.4543 87.2227 0003948 75.1818 284.9854 15.18897153 5869 DISCO 2 1 68431U 26067R 26127.86063837 .00006400 00000-0 31352-3 0 9999 2 68431 97.4583 86.9667 0004121 115.2747 244.8914 15.18493799 5820 HADES-SA (SpinnyONE) 1 68446U 26067AG 26127.82293744 .00013614 00000-0 67692-3 0 9994 2 68446 97.4392 86.7751 0006192 194.4351 165.6707 15.17737735 5804 PARUS-6U1 1 68456U 26067AS 26127.82766461 .00004905 00000-0 25084-3 0 9998 2 68456 97.4533 86.8336 0005241 184.0741 176.0451 15.17100390 5818 SAL-E 1 68458U 26067AU 26127.82733827 .00006472 00000-0 32896-3 0 9990 2 68458 97.4455 86.7989 0005153 193.6240 166.4855 15.17193562 5812 FSI-SAT 2 1 68792U 26088A 26127.83958212 .00004108 00000-0 28170-3 0 9996 2 68792 97.5017 278.1343 0013546 242.9546 117.0300 15.06501615 2219 OrigamiSat 2 1 68795U 26088D 26128.22335730 .00003191 00000-0 21112-3 0 9997 2 68795 97.5034 278.5438 0015080 212.8140 147.2153 15.07973213 2276 ARICA 2 1 68796U 26088E 26128.22231040 .00003970 00000-0 26077-3 0 9997 2 68796 97.5019 278.5410 0015157 211.0982 148.9350 15.08094852 2271 WASEDA-SAT-ZERO-II 1 68797U 26088F 26127.95640380 .00005447 00000-0 35547-3 0 9991 2 68797 97.5017 278.2821 0015124 211.8201 148.2115 15.08172346 2232 MANGARO-II-Piscus 1 68798U 26088G 26127.48869307 .00003738 00000-0 24298-3 0 9994 2 68798 97.5027 277.8353 0018377 217.2559 142.7396 15.08478138 2168 IO-86 1 40931U 25360.30710720 .00000000 00000-0 12800-3 0 00 2 40931 6.0006 332.5373 0012733 338.8432 8.1437 14.79075515 01 LILIUM-4 1 71922C 26067AC 26089.50133053 -.00014632 00000 0 -74472-3 0 04 2 71922 97.4497 49.1617 0004341 5.9603 355.7042 15.16896692 16